Location: Fort Worth, Tx
(32.7431°N, 97.3695°W)
Time: 20:58:47
(UTC-05:00)

Tiros 1 - Pass Details

Date: 04 October 2024
Orbit: 622 x 654 km, 48.4° (Epoch: 05 November)

Event Time Altitude Azimuth Distance (km) Brightness Sun altitude
Rises 14:31:06 0° 316° (NW) 2,903 10.3 52.4°
Reaches altitude 10° 14:34:37 10° 344° (NNW) 1,991 9.4 52.3°
Maximum altitude 14:36:49 13° 13° (NNE) 1,781 9.2 52.2°
Drops below altitude 10° 14:39:02 10° 42° (NE) 1,987 9.5 52.2°
Sets 14:42:32 0° 70° (ENE) 2,892 10.3 52.0°
